This demonstration page uses our WeatherBlox Daily Observations layout. Learn more.

Left ArrowRight Arrow

39.01783, -85.05884

Hourly Observations for March 10, 2015

Temp ( °F °C ) Dew Point ( °F °C ) Humidity (%) Winds ( mph kmh ) Pressure ( in mb ) Visibility ( mi km ) Precip ( " mm )
12:52 am 00:52 Cloudy 47 8.3 39 3.9 74 74 ESE 3 6 30.15 1021 10 16 0.00 0.00
1:52 am 01:52 Cloudy 47 8.3 39 3.9 74 74 SSE 5 7 30.14 1021 10 16 0.00 0.00
2:52 am 02:52 Cloudy 47 8.3 39 3.9 74 74 Calm 30.13 1020 10 16 0.00 0.00
3:52 am 03:52 Cloudy 47 8.3 39 3.9 74 74 ESE 5 7 30.11 1020 10 16 0.00 0.00
4:52 am 04:52 Cloudy with Light Rain 47 8.3 40 4.4 77 77 Calm 30.09 1019 10 16 0.00 0.03
5:52 am 05:52 Cloudy with Light Rain 46 7.8 40 4.4 79 79 Calm 30.07 1018 9 14 0.00 0.03
6:52 am 06:52 Cloudy with Light Rain 45 7.2 41 5 86 86 SE 6 9 30.07 1018 7 11 0.01 0.25
7:52 am 07:52 Cloudy with Light Rain 45 7.2 41 5 86 86 SE 5 7 30.06 1018 5 8 0.03 0.76
8:15 am 08:15 Cloudy with Light Rain 45 7 43 6 93 93 SE 3 6 30.09 1019 3 5 0.03 0.76
8:52 am 08:52 Cloudy with Rain 44 6.7 42 5.6 93 93 ESE 5 7 30.05 1018 3 5 0.07 1.78
9:06 am 09:06 Cloudy with Rain 45 7 43 6 93 93 SE 5 7 30.09 1019 2 3 0.00 0.00
9:39 am 09:39 Cloudy with Light Rain 45 7 43 6 93 93 SE 6 9 30.09 1019 2 2 0.09 2.29
9:52 am 09:52 Cloudy with Light Rain 45 7.2 43 6.1 93 93 SE 7 11 30.05 1018 2 2 0.10 2.54
10:11 am 10:11 Cloudy with Light Rain 46 8 43 6 87 87 SE 7 11 30.09 1019 1 1 0.00 0.03
10:52 am 10:52 Cloudy with Light Rain 46 7.8 44 6.7 93 93 ESE 5 7 30.05 1018 1 1 0.01 0.25
11:52 am 11:52 Cloudy with Light Rain 47 8.3 46 7.8 97 97 E 6 9 30.03 1017 1 1 0.02 0.51
12:52 pm 12:52 Cloudy with Light Rain 48 8.9 46 7.8 93 93 ENE 7 11 30.01 1016 1 1 0.03 0.76
1:52 pm 13:52 Cloudy with Heavy Rain 48 8.9 46 7.8 93 93 E 7 11 29.97 1015 1 1 0.16 4.06
2:41 pm 14:41 Cloudy with Rain 48 9 46 8 94 94 E 8 13 29.94 1014 1 1 0.13 3.30
2:52 pm 14:52 Cloudy with Rain 49 9.4 47 8.3 93 93 E 7 11 29.93 1014 1 1 0.15 3.81
3:52 pm 15:52 Cloudy with Rain 49 9.4 47 8.3 93 93 E 6 9 29.92 1013 1 1 0.15 3.81
4:52 pm 16:52 Cloudy with Light Rain 50 10 48 8.9 93 93 ESE 5 7 29.91 1013 1 1 0.06 1.52
5:52 pm 17:52 Cloudy with Mist and Fog 50 10 49 9.4 96 96 SE 3 6 29.92 1013 3 5 0.04 1.02
5:59 pm 17:59 Cloudy with Light Rain 50 10 48 9 94 94 SSE 3 6 29.91 1013 1 2 0.00 0.03
6:52 pm 18:52 Cloudy with Light Rain 51 10.6 49 9.4 92 92 Calm 29.93 1013 1 2 0.04 1.02
7:33 pm 19:33 Cloudy with Mist and Fog 50 10 48 9 94 94 NNW 3 6 29.94 1014 0 0 0.00 0.03
7:52 pm 19:52 Cloudy with Mist and Fog 49 9.4 48 8.9 97 97 N 7 11 29.96 1014 0 0 0.00 0.03
8:52 pm 20:52 Mostly Cloudy with Fog 48 8.9 47 8.3 96 96 NNW 7 11 29.98 1015 0 0 0.00 0.00
9:24 pm 21:24 Mostly Cloudy with Fog 48 9 46 8 94 94 NNW 5 7 30.00 1016 0 0 0.00 0.00
9:52 pm 21:52 Mostly Cloudy with Fog 48 8.9 47 8.3 96 96 NNW 5 7 30.02 1017 0 0 0.00 0.03
10:52 pm 22:52 Mostly Cloudy with Fog 47 8.3 47 8.3 100 100 NNW 5 7 30.03 1017 0 0 0.00 0.00
11:22 pm 23:22 Mostly Cloudy with Fog 46 8 46 8 100 100 WNW 3 6 30.09 1019 0 0 0.00 0.00
11:52 pm 23:52 Mostly Cloudy with Fog 47 8.3 46 7.8 97 97 W 5 7 30.05 1018 0 0 0.00 0.00

Powered by AerisWeather